Year,Month,Day,Hour,Minute,Value (Times are PST for temperature in C)
2014,06,12,02,36,11.20
2014,06,12,02,37,11.20
2014,06,12,02,38,11.20
2014,06,12,02,39,11.20
2014,06,12,02,40,11.20
2014,06,12,02,41,11.20
2014,06,12,02,42,11.20
2014,06,12,02,43,11.20
2014,06,12,02,44,11.20
2014,06,12,02,45,11.20
2014,06,12,02,46,11.20
2014,06,12,02,47,11.20
2014,06,12,02,48,11.20
2014,06,12,02,49,11.20
2014,06,12,02,50,11.20
2014,06,12,02,51,11.20
2014,06,12,02,52,11.20
2014,06,12,02,53,11.20
2014,06,12,02,54,11.20
2014,06,12,02,55,11.20
2014,06,12,02,56,11.20
2014,06,12,02,57,11.20
2014,06,12,02,58,11.20
2014,06,12,02,59,11.20
2014,06,12,03,37,11.30
2014,06,12,03,38,11.30
2014,06,12,03,39,11.30
2014,06,12,03,40,11.30
2014,06,12,03,41,11.30
2014,06,12,03,42,11.30
2014,06,12,03,43,11.30
2014,06,12,03,44,11.30
2014,06,12,03,45,11.30
2014,06,12,03,46,11.30
2014,06,12,03,47,11.30
2014,06,12,03,48,11.30
2014,06,12,03,49,11.30
2014,06,12,03,50,11.30
2014,06,12,03,51,11.30
2014,06,12,03,52,11.30
2014,06,12,03,53,11.30
2014,06,12,03,54,11.30
2014,06,12,03,55,11.30
2014,06,12,03,56,11.30
2014,06,12,03,57,11.30
2014,06,12,03,58,11.30
2014,06,12,03,59,11.30
2014,06,12,04,00,11.30
2014,06,12,04,01,11.30
2014,06,12,04,02,11.30
2014,06,12,04,03,11.30
2014,06,12,04,04,11.30
2014,06,12,04,05,11.30
2014,06,12,04,06,11.30
2014,06,12,04,07,11.30
2014,06,12,04,08,11.30
2014,06,12,04,09,11.30
2014,06,12,04,10,11.30
2014,06,12,04,11,11.30
2014,06,12,04,12,11.30
2014,06,12,04,13,11.30
2014,06,12,04,14,11.30
2014,06,12,04,15,11.30
2014,06,12,04,16,11.30
2014,06,12,04,17,11.30
2014,06,12,04,18,11.30
2014,06,12,04,19,11.30
2014,06,12,04,20,11.30
2014,06,12,04,21,11.30
2014,06,12,04,22,11.30
2014,06,12,04,23,11.30
2014,06,12,04,24,11.30
2014,06,12,04,25,11.30
2014,06,12,04,26,11.30
2014,06,12,04,27,11.30
2014,06,12,04,28,11.30
2014,06,12,04,29,11.30
2014,06,12,04,30,11.30
2014,06,12,04,31,11.30
2014,06,12,04,32,11.30
2014,06,12,04,33,11.30
2014,06,12,04,34,11.30
2014,06,12,04,35,11.30
2014,06,12,04,36,11.30
2014,06,12,04,37,11.20
2014,06,12,04,38,11.20
2014,06,12,04,39,11.20
2014,06,12,04,40,11.20
2014,06,12,04,41,11.20
2014,06,12,04,42,11.20
2014,06,12,04,43,11.20
2014,06,12,04,44,11.20
2014,06,12,04,45,11.20
2014,06,12,04,46,11.20
2014,06,12,04,47,11.20
2014,06,12,04,48,11.20
2014,06,12,04,49,11.20
2014,06,12,04,50,11.20
2014,06,12,04,51,11.20
2014,06,12,04,52,11.20
2014,06,12,04,53,11.20
2014,06,12,04,54,11.20
2014,06,12,04,55,11.20
2014,06,12,04,56,11.20
2014,06,12,04,57,11.20
2014,06,12,04,58,11.20
2014,06,12,04,59,11.20
2014,06,12,05,00,11.20
2014,06,12,05,01,11.20
2014,06,12,05,02,11.20
2014,06,12,05,03,11.20
2014,06,12,05,04,11.20
2014,06,12,05,05,11.20
2014,06,12,05,06,11.20
2014,06,12,05,07,11.20
2014,06,12,05,08,11.20
2014,06,12,05,09,11.20
2014,06,12,05,10,11.20
2014,06,12,05,11,11.20
2014,06,12,05,12,11.20
2014,06,12,05,13,11.20
2014,06,12,05,14,11.20
2014,06,12,05,15,11.20
2014,06,12,05,16,11.20
2014,06,12,05,17,11.20
2014,06,12,05,18,11.20
2014,06,12,05,19,11.20
2014,06,12,05,20,11.20
2014,06,12,05,21,11.20
2014,06,12,05,22,11.20
2014,06,12,05,23,11.20
2014,06,12,05,24,11.20
2014,06,12,05,25,11.20
2014,06,12,05,26,11.20
2014,06,12,05,27,11.20
2014,06,12,05,28,11.20
2014,06,12,05,29,11.20
2014,06,12,05,30,11.20
2014,06,12,05,31,11.20
2014,06,12,05,32,11.20
2014,06,12,05,33,11.20
2014,06,12,05,34,11.20
2014,06,12,05,35,11.20
2014,06,12,05,36,11.20
2014,06,12,05,37,11.20
2014,06,12,05,38,11.10
2014,06,12,05,39,11.10
2014,06,12,05,40,11.10
2014,06,12,05,41,11.10
2014,06,12,05,42,11.10
2014,06,12,05,43,11.10
2014,06,12,05,44,11.10
2014,06,12,05,45,11.10
2014,06,12,05,46,11.10
2014,06,12,05,47,11.10
2014,06,12,05,48,11.10
2014,06,12,05,49,11.10
2014,06,12,05,50,11.10
2014,06,12,05,51,11.10
2014,06,12,05,52,11.10
2014,06,12,05,53,11.10
2014,06,12,05,54,11.10
2014,06,12,05,55,11.10
2014,06,12,05,56,11.10
2014,06,12,05,57,11.10
2014,06,12,05,58,11.10
2014,06,12,05,59,11.10
2014,06,12,06,00,11.10
2014,06,12,06,01,11.10
2014,06,12,06,02,11.10
2014,06,12,06,03,11.10
2014,06,12,06,04,11.10
2014,06,12,06,05,11.10
2014,06,12,06,06,11.10
2014,06,12,06,07,11.10
2014,06,12,06,08,11.10
2014,06,12,06,09,11.10
2014,06,12,06,10,11.10
2014,06,12,06,11,11.10
2014,06,12,06,12,11.10
2014,06,12,06,13,11.10
2014,06,12,06,14,11.10
2014,06,12,06,15,11.10
2014,06,12,06,16,11.10
2014,06,12,06,17,11.10
2014,06,12,06,18,11.10
2014,06,12,06,19,11.10
2014,06,12,06,20,11.10
2014,06,12,06,21,11.10
2014,06,12,06,22,11.10
2014,06,12,06,23,11.10
2014,06,12,06,24,11.10
2014,06,12,06,25,11.10
2014,06,12,06,26,11.10
2014,06,12,06,27,11.10
2014,06,12,06,28,11.10
2014,06,12,06,29,11.10
2014,06,12,06,30,11.10
2014,06,12,06,31,11.10
2014,06,12,06,32,11.10
2014,06,12,06,33,11.10
2014,06,12,06,34,11.10
2014,06,12,06,35,11.10
2014,06,12,06,36,11.10
2014,06,12,06,37,11.10
2014,06,12,06,38,11.10
2014,06,12,06,39,11.20
2014,06,12,06,40,11.20
2014,06,12,06,41,11.20
2014,06,12,06,42,11.20
2014,06,12,06,43,11.20
2014,06,12,06,44,11.20
2014,06,12,06,45,11.20
2014,06,12,06,46,11.20
2014,06,12,06,47,11.20
2014,06,12,06,48,11.20
2014,06,12,06,49,11.20
2014,06,12,06,50,11.20
2014,06,12,06,51,11.20
2014,06,12,06,52,11.20
2014,06,12,06,53,11.20
2014,06,12,06,54,11.20
2014,06,12,06,55,11.20
2014,06,12,06,56,11.20
2014,06,12,06,57,11.20
2014,06,12,06,58,11.20
2014,06,12,06,59,11.20
2014,06,12,07,00,11.20
2014,06,12,07,01,11.20
2014,06,12,07,02,11.20
2014,06,12,07,03,11.20
2014,06,12,07,04,11.20
2014,06,12,07,05,11.20
2014,06,12,07,06,11.20
2014,06,12,07,07,11.20
2014,06,12,07,08,11.20
2014,06,12,07,09,11.20
2014,06,12,07,10,11.20
2014,06,12,07,11,11.20
2014,06,12,07,12,11.20
2014,06,12,07,13,11.20
2014,06,12,07,14,11.20
2014,06,12,07,15,11.20
2014,06,12,07,16,11.20
2014,06,12,07,17,11.20
2014,06,12,07,18,11.20
2014,06,12,07,19,11.20
2014,06,12,07,20,11.20
2014,06,12,07,21,11.20
2014,06,12,07,22,11.20
2014,06,12,07,23,11.20
2014,06,12,07,24,11.20
2014,06,12,07,25,11.20
2014,06,12,07,26,11.20
2014,06,12,07,27,11.20
2014,06,12,07,28,11.20
2014,06,12,07,29,11.20
2014,06,12,07,30,11.20
2014,06,12,07,31,11.20
2014,06,12,07,32,11.20
2014,06,12,07,33,11.20
2014,06,12,07,34,11.20
2014,06,12,07,35,11.20
2014,06,12,07,36,11.20
2014,06,12,07,37,11.20
2014,06,12,07,38,11.20
2014,06,12,07,39,11.30
2014,06,12,07,40,11.30
2014,06,12,07,41,11.30
2014,06,12,07,42,11.30
2014,06,12,07,43,11.30
2014,06,12,07,44,11.30
2014,06,12,07,45,11.30
2014,06,12,07,46,11.30
2014,06,12,07,47,11.30
2014,06,12,07,48,11.30
2014,06,12,07,49,11.30
2014,06,12,07,50,11.30
2014,06,12,07,51,11.30
2014,06,12,07,52,11.30
2014,06,12,07,53,11.30
2014,06,12,07,54,11.30
2014,06,12,07,55,11.30
2014,06,12,07,56,11.30
2014,06,12,07,57,11.30
2014,06,12,07,58,11.30
2014,06,12,07,59,11.30
2014,06,12,08,00,11.30
2014,06,12,08,01,11.30
2014,06,12,08,02,11.30
2014,06,12,08,03,11.30
2014,06,12,08,04,11.30
2014,06,12,08,05,11.30
2014,06,12,08,06,11.30
2014,06,12,08,07,11.30
2014,06,12,08,08,11.30
2014,06,12,08,09,11.30
2014,06,12,08,10,11.30
2014,06,12,08,11,11.30
2014,06,12,08,12,11.30
2014,06,12,08,13,11.30
2014,06,12,08,14,11.30
2014,06,12,08,15,11.30
2014,06,12,08,16,11.30
2014,06,12,08,17,11.30
2014,06,12,08,18,11.30
2014,06,12,08,19,11.30
2014,06,12,08,20,11.30
2014,06,12,08,21,11.30
2014,06,12,08,22,11.30
2014,06,12,08,23,11.30
2014,06,12,08,24,11.30
2014,06,12,08,25,11.30
2014,06,12,08,26,11.30
2014,06,12,08,27,11.30
2014,06,12,08,28,11.30
2014,06,12,08,29,11.30
2014,06,12,08,30,11.30
2014,06,12,08,31,11.30
2014,06,12,08,32,11.30
2014,06,12,08,33,11.30
2014,06,12,08,34,11.30
2014,06,12,08,35,11.30
2014,06,12,08,36,11.30
2014,06,12,08,37,11.30
2014,06,12,08,38,11.30
2014,06,12,08,39,11.60
2014,06,12,08,40,11.60
2014,06,12,08,41,11.60
2014,06,12,08,42,11.60
2014,06,12,08,43,11.60
2014,06,12,08,44,11.60
2014,06,12,08,45,11.60
2014,06,12,08,46,11.60
2014,06,12,08,47,11.60
2014,06,12,08,48,11.60
2014,06,12,08,49,11.60
2014,06,12,08,50,11.60
2014,06,12,08,51,11.60
2014,06,12,08,52,11.60
2014,06,12,08,53,11.60
2014,06,12,08,54,11.60
2014,06,12,08,55,11.60
2014,06,12,08,56,11.60
2014,06,12,08,57,11.60
2014,06,12,08,58,11.60
2014,06,12,08,59,11.60
2014,06,12,09,00,11.60
2014,06,12,09,01,11.60
2014,06,12,09,02,11.60
2014,06,12,09,03,11.60
2014,06,12,09,04,11.60
2014,06,12,09,05,11.60
2014,06,12,09,06,11.60
2014,06,12,09,07,11.60
2014,06,12,09,08,11.60
2014,06,12,09,09,11.60
2014,06,12,09,10,11.60
2014,06,12,09,11,11.60
2014,06,12,09,12,11.60
2014,06,12,09,13,11.60
2014,06,12,09,14,11.60
2014,06,12,09,15,11.60
2014,06,12,09,16,11.60
2014,06,12,09,17,11.60
2014,06,12,09,18,11.60
2014,06,12,09,19,11.60
2014,06,12,09,20,11.60
2014,06,12,09,21,11.60
2014,06,12,09,22,11.60
2014,06,12,09,23,11.60
2014,06,12,09,24,11.60
2014,06,12,09,25,11.60
2014,06,12,09,26,11.60
2014,06,12,09,27,11.60
2014,06,12,09,28,11.60
2014,06,12,09,29,11.60
2014,06,12,09,30,11.60
2014,06,12,09,31,11.60
2014,06,12,09,32,11.60
2014,06,12,09,33,11.60
2014,06,12,09,34,11.60
2014,06,12,09,35,11.60
2014,06,12,09,36,11.60
2014,06,12,09,37,11.60
2014,06,12,09,38,11.60
2014,06,12,09,39,11.60
2014,06,12,09,40,11.70
2014,06,12,09,41,11.70
2014,06,12,09,42,11.70
2014,06,12,09,43,11.70
2014,06,12,09,44,11.70
2014,06,12,09,45,11.70
2014,06,12,09,46,11.70
2014,06,12,09,47,11.70
2014,06,12,09,48,11.70
2014,06,12,09,49,11.70
2014,06,12,09,50,11.70
2014,06,12,09,51,11.70
2014,06,12,09,52,11.70
2014,06,12,09,53,11.70
2014,06,12,09,54,11.70
2014,06,12,09,55,11.70
2014,06,12,09,56,11.70
2014,06,12,09,57,11.70
2014,06,12,09,58,11.70
2014,06,12,09,59,11.70
2014,06,12,11,41,12.40
2014,06,12,11,42,12.40
2014,06,12,11,43,12.40
2014,06,12,11,44,12.40
2014,06,12,11,45,12.40
2014,06,12,11,46,12.40
2014,06,12,11,47,12.40
2014,06,12,11,48,12.40
2014,06,12,11,49,12.40
2014,06,12,11,50,12.40
2014,06,12,11,51,12.40
2014,06,12,11,52,12.40
2014,06,12,11,53,12.40
2014,06,12,11,54,12.40
2014,06,12,11,55,12.40
2014,06,12,11,56,12.40
2014,06,12,11,57,12.40
2014,06,12,11,58,12.40
2014,06,12,11,59,12.40
2014,06,12,12,41,12.40
2014,06,12,12,42,12.40
2014,06,12,12,43,12.40
2014,06,12,12,44,12.40
2014,06,12,12,45,12.40
2014,06,12,12,46,12.40
2014,06,12,12,47,12.40
2014,06,12,12,48,12.40
2014,06,12,12,49,12.40
2014,06,12,12,50,12.40
2014,06,12,12,51,12.40
2014,06,12,12,52,12.40
2014,06,12,12,53,12.40
2014,06,12,12,54,12.40
2014,06,12,12,55,12.40
2014,06,12,12,56,12.40
2014,06,12,12,57,12.40
2014,06,12,12,58,12.40
2014,06,12,12,59,12.40
2014,06,12,13,00,12.40
2014,06,12,13,01,12.40
2014,06,12,13,02,12.40
2014,06,12,13,03,12.40
2014,06,12,13,04,12.40
2014,06,12,13,05,12.40
2014,06,12,13,06,12.40
2014,06,12,13,07,12.40
2014,06,12,13,08,12.40
2014,06,12,13,09,12.40
2014,06,12,13,10,12.40
2014,06,12,13,11,12.40
2014,06,12,13,12,12.40
2014,06,12,13,13,12.40
2014,06,12,13,14,12.40
2014,06,12,13,15,12.40
2014,06,12,13,16,12.40
2014,06,12,13,17,12.40
2014,06,12,13,18,12.40
2014,06,12,13,19,12.40
2014,06,12,13,20,12.40
2014,06,12,13,21,12.40
2014,06,12,13,22,12.40
2014,06,12,13,23,12.40
2014,06,12,13,24,12.40
2014,06,12,13,25,12.40
2014,06,12,13,26,12.40
2014,06,12,13,27,12.40
2014,06,12,13,28,12.40
2014,06,12,13,29,12.40
2014,06,12,13,30,12.40
2014,06,12,13,31,12.40
2014,06,12,13,32,12.40
2014,06,12,13,33,12.40
2014,06,12,13,34,12.40
2014,06,12,13,35,12.40
2014,06,12,13,36,12.40
2014,06,12,13,37,12.40
2014,06,12,13,38,12.40
2014,06,12,13,39,12.40
2014,06,12,13,40,12.40
2014,06,12,13,41,12.40
2014,06,12,13,42,12.60
2014,06,12,13,43,12.60
2014,06,12,13,44,12.60
2014,06,12,13,45,12.60
2014,06,12,13,46,12.60
2014,06,12,13,47,12.60
2014,06,12,13,48,12.60
2014,06,12,13,49,12.60
2014,06,12,13,50,12.60
2014,06,12,13,51,12.60
2014,06,12,13,52,12.60
2014,06,12,13,53,12.60
2014,06,12,13,54,12.60
2014,06,12,13,55,12.60
2014,06,12,13,56,12.60
2014,06,12,13,57,12.60
2014,06,12,13,58,12.60
2014,06,12,13,59,12.60
2014,06,12,14,00,12.60
2014,06,12,14,01,12.60
2014,06,12,14,02,12.60
2014,06,12,14,03,12.60
2014,06,12,14,04,12.60
2014,06,12,14,05,12.60
2014,06,12,14,06,12.60
2014,06,12,14,07,12.60
2014,06,12,14,08,12.60
2014,06,12,14,09,12.60
2014,06,12,14,10,12.60
2014,06,12,14,11,12.60
2014,06,12,14,12,12.60
2014,06,12,14,13,12.60
2014,06,12,14,14,12.60
2014,06,12,14,15,12.60
2014,06,12,14,16,12.60
2014,06,12,14,17,12.60
2014,06,12,14,18,12.60
2014,06,12,14,19,12.60
2014,06,12,14,20,12.60
2014,06,12,14,21,12.60
2014,06,12,14,22,12.60
2014,06,12,14,23,12.60
2014,06,12,14,24,12.60
2014,06,12,14,25,12.60
2014,06,12,14,26,12.60
2014,06,12,14,27,12.60
2014,06,12,14,28,12.60
2014,06,12,14,29,12.60
2014,06,12,14,30,12.60
2014,06,12,14,31,12.60
2014,06,12,14,32,12.60
2014,06,12,14,33,12.60
2014,06,12,14,34,12.60
2014,06,12,14,35,12.60
2014,06,12,14,36,12.60
2014,06,12,14,37,12.60
2014,06,12,14,38,12.60
2014,06,12,14,39,12.60
2014,06,12,14,40,12.60
2014,06,12,14,41,12.60
2014,06,12,14,42,12.60
2014,06,12,14,43,12.60
2014,06,12,14,44,12.60
2014,06,12,14,45,12.60
2014,06,12,14,46,12.60
2014,06,12,14,47,12.60
2014,06,12,14,48,12.60
2014,06,12,14,49,12.60
2014,06,12,14,50,12.60
2014,06,12,14,51,12.60
2014,06,12,14,52,12.60
2014,06,12,14,53,12.60
2014,06,12,14,54,12.60
2014,06,12,14,55,12.60
2014,06,12,14,56,12.60
2014,06,12,14,57,12.60
2014,06,12,14,58,12.60
2014,06,12,14,59,12.60
2014,06,12,15,44,12.20
2014,06,12,15,45,12.20
2014,06,12,15,46,12.20
2014,06,12,15,47,12.20
2014,06,12,15,48,12.20
2014,06,12,15,49,12.20
2014,06,12,15,50,12.20
2014,06,12,15,51,12.20
2014,06,12,15,52,12.20
2014,06,12,15,53,12.20
2014,06,12,15,54,12.20
2014,06,12,15,55,12.20
2014,06,12,15,56,12.20
2014,06,12,15,57,12.20
2014,06,12,15,58,12.20
2014,06,12,15,59,12.20
2014,06,12,16,00,12.20
2014,06,12,16,01,12.20
2014,06,12,16,02,12.20
2014,06,12,16,03,12.20
2014,06,12,16,04,12.20
2014,06,12,16,05,12.20
2014,06,12,16,06,12.20
2014,06,12,16,07,12.20
2014,06,12,16,08,12.20
2014,06,12,16,09,12.20
2014,06,12,16,10,12.20
2014,06,12,16,11,12.20
2014,06,12,16,12,12.20
2014,06,12,16,13,12.20
2014,06,12,16,14,12.20
2014,06,12,16,15,12.20
2014,06,12,16,16,12.20
2014,06,12,16,17,12.20
2014,06,12,16,18,12.20
2014,06,12,16,19,12.20
2014,06,12,16,20,12.20
2014,06,12,16,21,12.20
2014,06,12,16,22,12.20
2014,06,12,16,23,12.20
2014,06,12,16,24,12.20
2014,06,12,16,25,12.20
2014,06,12,16,26,12.20
2014,06,12,16,27,12.20
2014,06,12,16,28,12.20
2014,06,12,16,29,12.20
2014,06,12,16,30,12.20
2014,06,12,16,31,12.20
2014,06,12,16,32,12.20
2014,06,12,16,33,12.20
2014,06,12,16,34,12.20
2014,06,12,16,35,12.20
2014,06,12,16,36,12.20
2014,06,12,16,37,12.20
2014,06,12,16,38,12.20
2014,06,12,16,39,12.20
2014,06,12,16,40,12.20
2014,06,12,16,41,12.20
2014,06,12,16,42,12.20
2014,06,12,16,43,12.20
2014,06,12,16,44,12.20
2014,06,12,16,45,12.70
2014,06,12,16,46,12.70
2014,06,12,16,47,12.70
2014,06,12,16,48,12.70
2014,06,12,16,49,12.70
2014,06,12,16,50,12.70
2014,06,12,16,51,12.70
2014,06,12,16,52,12.70
2014,06,12,16,53,12.70
2014,06,12,16,54,12.70
2014,06,12,16,55,12.70
2014,06,12,16,56,12.70
2014,06,12,16,57,12.70
2014,06,12,16,58,12.70
2014,06,12,16,59,12.70
2014,06,12,17,00,12.70
2014,06,12,17,01,12.70
2014,06,12,17,02,12.70
2014,06,12,17,03,12.70
2014,06,12,17,04,12.70
2014,06,12,17,05,12.70
2014,06,12,17,06,12.70
2014,06,12,17,07,12.70
2014,06,12,17,08,12.70
2014,06,12,17,09,12.70
2014,06,12,17,10,12.70
2014,06,12,17,11,12.70
2014,06,12,17,12,12.70
2014,06,12,17,13,12.70
2014,06,12,17,14,12.70
2014,06,12,17,15,12.70
2014,06,12,17,16,12.70
2014,06,12,17,17,12.70
2014,06,12,17,18,12.70
2014,06,12,17,19,12.70
2014,06,12,17,20,12.70
2014,06,12,17,21,12.70
2014,06,12,17,22,12.70
2014,06,12,17,23,12.70
2014,06,12,17,24,12.70
2014,06,12,17,25,12.70
2014,06,12,17,26,12.70
2014,06,12,17,27,12.70
2014,06,12,17,28,12.70
2014,06,12,17,29,12.70
2014,06,12,17,30,12.70
2014,06,12,17,31,12.70
2014,06,12,17,32,12.70
2014,06,12,17,33,12.70
2014,06,12,17,34,12.70
2014,06,12,17,35,12.70
2014,06,12,17,36,12.70
2014,06,12,17,37,12.70
2014,06,12,17,38,12.70
2014,06,12,17,39,12.70
2014,06,12,17,40,12.70
2014,06,12,17,41,12.70
2014,06,12,17,42,12.70
2014,06,12,17,43,12.70
2014,06,12,17,44,12.70
2014,06,12,17,45,12.70
2014,06,12,17,46,12.60
2014,06,12,17,47,12.60
2014,06,12,17,48,12.60
2014,06,12,17,49,12.60
2014,06,12,17,50,12.60
2014,06,12,17,51,12.60
2014,06,12,17,52,12.60
2014,06,12,17,53,12.60
2014,06,12,17,54,12.60
2014,06,12,17,55,12.60
2014,06,12,17,56,12.60
2014,06,12,17,57,12.60
2014,06,12,17,58,12.60
2014,06,12,17,59,12.60
2014,06,12,18,00,12.60
2014,06,12,18,01,12.60
2014,06,12,18,02,12.60
2014,06,12,18,03,12.60
2014,06,12,18,04,12.60
2014,06,12,18,05,12.60
2014,06,12,18,06,12.60
2014,06,12,18,07,12.60
2014,06,12,18,08,12.60
2014,06,12,18,09,12.60
2014,06,12,18,10,12.60
2014,06,12,18,11,12.60
2014,06,12,18,12,12.60
2014,06,12,18,13,12.60
2014,06,12,18,14,12.60
2014,06,12,18,15,12.60
2014,06,12,18,16,12.60
2014,06,12,18,17,12.60
2014,06,12,18,18,12.60
2014,06,12,18,19,12.60
2014,06,12,18,20,12.60
2014,06,12,18,21,12.60
2014,06,12,18,22,12.60
2014,06,12,18,23,12.60
2014,06,12,18,24,12.60
2014,06,12,18,25,12.60
2014,06,12,18,26,12.60
2014,06,12,18,27,12.60
2014,06,12,18,28,12.60
2014,06,12,18,29,12.60
2014,06,12,18,30,12.60
2014,06,12,18,31,12.60
2014,06,12,18,32,12.60
2014,06,12,18,33,12.60
2014,06,12,18,34,12.60
2014,06,12,18,35,12.60
2014,06,12,18,36,12.60
2014,06,12,18,37,12.60
2014,06,12,18,38,12.60
2014,06,12,18,39,12.60
2014,06,12,18,40,12.60
2014,06,12,18,41,12.60
2014,06,12,18,42,12.60
2014,06,12,18,43,12.60
2014,06,12,18,44,12.60
2014,06,12,18,45,12.60
2014,06,12,18,46,12.30
2014,06,12,18,47,12.30
2014,06,12,18,48,12.30
2014,06,12,18,49,12.30
2014,06,12,18,50,12.30
2014,06,12,18,51,12.30
2014,06,12,18,52,12.30
2014,06,12,18,53,12.30
2014,06,12,18,54,12.30
2014,06,12,18,55,12.30
2014,06,12,18,56,12.30
2014,06,12,18,57,12.30
2014,06,12,18,58,12.30
2014,06,12,18,59,12.30
2014,06,12,19,00,12.30
2014,06,12,19,01,12.30
2014,06,12,19,02,12.30
2014,06,12,19,03,12.30
2014,06,12,19,04,12.30
2014,06,12,19,05,12.30
2014,06,12,19,06,12.30
2014,06,12,19,07,12.30
2014,06,12,19,08,12.30
2014,06,12,19,09,12.30
2014,06,12,19,10,12.30
2014,06,12,19,11,12.30
2014,06,12,19,12,12.30
2014,06,12,19,13,12.30
2014,06,12,19,14,12.30
2014,06,12,19,15,12.30
2014,06,12,19,16,12.30
2014,06,12,19,17,12.30
2014,06,12,19,18,12.30
2014,06,12,19,19,12.30
2014,06,12,19,20,12.30
2014,06,12,19,21,12.30
2014,06,12,19,22,12.30
2014,06,12,19,23,12.30
2014,06,12,19,24,12.30
2014,06,12,19,25,12.30
2014,06,12,19,26,12.30
2014,06,12,19,27,12.30
2014,06,12,19,28,12.30
2014,06,12,19,29,12.30
2014,06,12,19,30,12.30
2014,06,12,19,31,12.30
2014,06,12,19,32,12.30
2014,06,12,19,33,12.30
2014,06,12,19,34,12.30
2014,06,12,19,35,12.30
2014,06,12,19,36,12.30
2014,06,12,19,37,12.30
2014,06,12,19,38,12.30
2014,06,12,19,39,12.30
2014,06,12,19,40,12.30
2014,06,12,19,41,12.30
2014,06,12,19,42,12.30
2014,06,12,19,43,12.30
2014,06,12,19,44,12.30
2014,06,12,19,45,12.30
2014,06,12,19,46,12.30
2014,06,12,19,47,11.80
2014,06,12,19,48,11.80
2014,06,12,19,49,11.80
2014,06,12,19,50,11.80
2014,06,12,19,51,11.80
2014,06,12,19,52,11.80
2014,06,12,19,53,11.80
2014,06,12,19,54,11.80
2014,06,12,19,55,11.80
2014,06,12,19,56,11.80
2014,06,12,19,57,11.80
2014,06,12,19,58,11.80
2014,06,12,19,59,11.80
2014,06,12,20,00,11.80
2014,06,12,20,01,11.80
2014,06,12,20,02,11.80
2014,06,12,20,03,11.80
2014,06,12,20,04,11.80
2014,06,12,20,05,11.80
2014,06,12,20,06,11.80
2014,06,12,20,07,11.80
2014,06,12,20,08,11.80
2014,06,12,20,09,11.80
2014,06,12,20,10,11.80
2014,06,12,20,11,11.80
2014,06,12,20,12,11.80
2014,06,12,20,13,11.80
2014,06,12,20,14,11.80
2014,06,12,20,15,11.80
2014,06,12,20,16,11.80
2014,06,12,20,17,11.80
2014,06,12,20,18,11.80
2014,06,12,20,19,11.80
2014,06,12,20,20,11.80
2014,06,12,20,21,11.80
2014,06,12,20,22,11.80
2014,06,12,20,23,11.80
2014,06,12,20,24,11.80
2014,06,12,20,25,11.80
2014,06,12,20,26,11.80
2014,06,12,20,27,11.80
2014,06,12,20,28,11.80
2014,06,12,20,29,11.80
2014,06,12,20,30,11.80
2014,06,12,20,31,11.80
2014,06,12,20,32,11.80
2014,06,12,20,33,11.80
2014,06,12,20,34,11.80
2014,06,12,20,35,11.80
2014,06,12,20,36,11.80
2014,06,12,20,37,11.80
2014,06,12,20,38,11.80
2014,06,12,20,39,11.80
2014,06,12,20,40,11.80
2014,06,12,20,41,11.80
2014,06,12,20,42,11.80
2014,06,12,20,43,11.80
2014,06,12,20,44,11.80
2014,06,12,20,45,11.80
2014,06,12,20,46,11.80
2014,06,12,20,47,11.80
2014,06,12,20,48,11.80
2014,06,12,20,49,11.80
2014,06,12,20,50,11.80
2014,06,12,20,51,11.80
2014,06,12,20,52,11.80
2014,06,12,20,53,11.80
2014,06,12,20,54,11.80
2014,06,12,20,55,11.80
2014,06,12,20,56,11.80
2014,06,12,20,57,11.80
2014,06,12,20,58,11.80
2014,06,12,20,59,11.80
2014,06,12,21,00,11.80
2014,06,12,21,01,11.80
2014,06,12,21,02,11.80
2014,06,12,21,03,11.80
2014,06,12,21,04,11.80
2014,06,12,21,05,11.80
2014,06,12,21,06,11.80
2014,06,12,21,07,11.80
2014,06,12,21,08,11.80
2014,06,12,21,09,11.80
2014,06,12,21,10,11.80
2014,06,12,21,11,11.80
2014,06,12,21,12,11.80
2014,06,12,21,13,11.80
2014,06,12,21,14,11.80
2014,06,12,21,15,11.80
2014,06,12,21,16,11.80
2014,06,12,21,17,11.80
2014,06,12,21,18,11.80
2014,06,12,21,19,11.80
2014,06,12,21,20,11.80
2014,06,12,21,21,11.80
2014,06,12,21,22,11.80
2014,06,12,21,23,11.80
2014,06,12,21,24,11.80
2014,06,12,21,25,11.80
2014,06,12,21,26,11.80
2014,06,12,21,27,11.80
2014,06,12,21,28,11.80
2014,06,12,21,29,11.80
2014,06,12,21,30,11.80
2014,06,12,21,31,11.80
2014,06,12,21,32,11.80
2014,06,12,21,33,11.80
2014,06,12,21,34,11.80
2014,06,12,21,35,11.80
2014,06,12,21,36,11.80
2014,06,12,21,37,11.80
2014,06,12,21,38,11.80
2014,06,12,21,39,11.80
2014,06,12,21,40,11.80
2014,06,12,21,41,11.80
2014,06,12,21,42,11.80
2014,06,12,21,43,11.80
2014,06,12,21,44,11.80
2014,06,12,21,45,11.80
2014,06,12,21,46,11.80
2014,06,12,21,47,11.80
2014,06,12,21,48,11.80
2014,06,12,21,49,11.80
2014,06,12,21,50,11.80
2014,06,12,21,51,11.80
2014,06,12,21,52,11.80
2014,06,12,21,53,11.80
2014,06,12,21,54,11.80
2014,06,12,21,55,11.80
2014,06,12,21,56,11.80
2014,06,12,21,57,11.80
2014,06,12,21,58,11.80
2014,06,12,21,59,11.80
2014,06,12,22,00,11.80
2014,06,12,22,01,11.80
2014,06,12,22,02,11.80
2014,06,12,22,03,11.80
2014,06,12,22,04,11.80
2014,06,12,22,05,11.80
2014,06,12,22,06,11.80
2014,06,12,22,07,11.80
2014,06,12,22,08,11.80
2014,06,12,22,09,11.80
2014,06,12,22,10,11.80
2014,06,12,22,11,11.80
2014,06,12,22,12,11.80
2014,06,12,22,13,11.80
2014,06,12,22,14,11.80
2014,06,12,22,15,11.80
2014,06,12,22,16,11.80
2014,06,12,22,17,11.80
2014,06,12,22,18,11.80
2014,06,12,22,19,11.80
2014,06,12,22,20,11.80
2014,06,12,22,21,11.80
2014,06,12,22,22,11.80
2014,06,12,22,23,11.80
2014,06,12,22,24,11.80
2014,06,12,22,25,11.80
2014,06,12,22,26,11.80
2014,06,12,22,27,11.80
2014,06,12,22,28,11.80
2014,06,12,22,29,11.80
2014,06,12,22,30,11.80
2014,06,12,22,31,11.80
2014,06,12,22,32,11.80
2014,06,12,22,33,11.80
2014,06,12,22,34,11.80
2014,06,12,22,35,11.80
2014,06,12,22,36,11.80
2014,06,12,22,37,11.80
2014,06,12,22,38,11.80
2014,06,12,22,39,11.80
2014,06,12,22,40,11.80
2014,06,12,22,41,11.80
2014,06,12,22,42,11.80
2014,06,12,22,43,11.80
2014,06,12,22,44,11.80
2014,06,12,22,45,11.80
2014,06,12,22,46,11.80
2014,06,12,22,47,11.80
2014,06,12,22,48,11.80
2014,06,12,22,49,11.70
2014,06,12,22,50,11.70
2014,06,12,22,51,11.70
2014,06,12,22,52,11.70
2014,06,12,22,53,11.70
2014,06,12,22,54,11.70
2014,06,12,22,55,11.70
2014,06,12,22,56,11.70
2014,06,12,22,57,11.70
2014,06,12,22,58,11.70
2014,06,12,22,59,11.70
2014,06,12,23,00,11.70
2014,06,12,23,01,11.70
2014,06,12,23,02,11.70
2014,06,12,23,03,11.70
2014,06,12,23,04,11.70
2014,06,12,23,05,11.70
2014,06,12,23,06,11.70
2014,06,12,23,07,11.70
2014,06,12,23,08,11.70
2014,06,12,23,09,11.70
2014,06,12,23,10,11.70
2014,06,12,23,11,11.70
2014,06,12,23,12,11.70
2014,06,12,23,13,11.70
2014,06,12,23,14,11.70
2014,06,12,23,15,11.70
2014,06,12,23,16,11.70
2014,06,12,23,17,11.70
2014,06,12,23,18,11.70
2014,06,12,23,19,11.70
2014,06,12,23,20,11.70
2014,06,12,23,21,11.70
2014,06,12,23,22,11.70
2014,06,12,23,23,11.70
2014,06,12,23,24,11.70
2014,06,12,23,25,11.70
2014,06,12,23,26,11.70
2014,06,12,23,27,11.70
2014,06,12,23,28,11.70
2014,06,12,23,29,11.70
2014,06,12,23,30,11.70
2014,06,12,23,31,11.70
2014,06,12,23,32,11.70
2014,06,12,23,33,11.70
2014,06,12,23,34,11.70
2014,06,12,23,35,11.70
2014,06,12,23,36,11.70
2014,06,12,23,37,11.70
2014,06,12,23,38,11.70